Location: Ostrava
(49.8330°N, 18.2830°E)
Time: 16:06:35
(UTC+01:00)

Iridium 39 - Visible Passes

Search period start: 01 March 2015 00:00
Search period end: 11 March 2015 00:00
Orbit: 776 x 779 km, 86.4° (Epoch: 28 February)

Date Brightness Start Highest point End Pass type
(mag) Time Alt. Az. Time Alt. Az. Time Alt. Az.
06 Mar 9.0 01:15:56 10° N 01:16:00 10° N 01:16:00 10° N visible
07 Mar 9.0 00:42:27 10° N 00:42:36 11° N 00:42:36 11° N visible
08 Mar 9.1 00:09:09 10° NNE 00:09:12 10° NNE 00:09:12 10° NNE visible
09 Mar 8.9 01:16:05 10° N 01:16:17 11° N 01:16:17 11° N visible
10 Mar 8.9 00:42:29 10° N 00:42:54 12° N 00:42:54 12° N visible
